Location: Unspecified
(0.0000°N, 0.0000°E)
Time: 07:18:11
(UTC+00:00)

Courier 1B Rocket - Pass Details

Date: 20 December 2018
Orbit: 920 x 1202 km, 28.2° (Epoch: 16 June)

Event Time Altitude Azimuth Distance (km) Brightness Sun altitude
Rises 12:32:50 0° 325° (NW) 3,794 7.9 65.1°
Reaches altitude 10° 12:36:20 10° 341° (NNW) 2,896 7.4 64.8°
Maximum altitude 12:41:21 20° 27° (NNE) 2,310 7.0 64.3°
Drops below altitude 10° 12:46:34 10° 71° (ENE) 3,040 7.5 63.7°
Sets 12:50:20 0° 87° (E) 4,042 8.1 63.3°
